Volver al catálogo

COSMOS 1275 DEB

ActivoPO
NORAD 20505·DEBRIS·🇷🇺 Russia

Lanzado Jun 4, 1981 desde Plesetsk Cosmodrome

Loading…

Próximos Pases (próximas 24 horas)

TLE

ActualizadoSource: Space-Track

Época: Sep 14, 2026, 05:12 UTC

1 20505U 81053MM  26257.21705437  .00003503  00000-0  75366-3 0  9991
2 20505  83.1524 178.2896 0015759  68.6286 291.6596 14.58217782688433

Sigue COSMOS 1275 DEB en tiempo real con AllMySat

Download on the App Store